TimeMDT,TemperatureF,Dew PointF,Humidity,Sea Level PressureIn,VisibilityMPH,Wind Direction,Wind SpeedMPH,Gust SpeedMPH,PrecipitationIn,Events,Conditions,WindDirDegrees,DateUTC
12:15 AM,27.5,22.1,80,30.32,10.0,ESE,4.6,-,N/A,,Clear,120,2014-03-23 06:15:00
12:35 AM,27.5,21.9,80,30.31,10.0,ESE,3.5,-,N/A,,Mostly Cloudy,120,2014-03-23 06:35:00
12:55 AM,28.8,22.5,77,30.31,10.0,SE,3.5,-,N/A,,Overcast,140,2014-03-23 06:55:00
1:15 AM,28.8,22.1,76,30.31,10.0,Calm,Calm,-,N/A,,Overcast,0,2014-03-23 07:15:00
1:35 AM,29.3,22.8,77,30.32,10.0,ESE,8.1,-,N/A,,Overcast,110,2014-03-23 07:35:00
1:55 AM,29.3,22.8,77,30.32,10.0,ESE,4.6,-,N/A,,Overcast,120,2014-03-23 07:55:00
2:15 AM,29.1,22.8,77,30.31,10.0,ESE,6.9,-,N/A,,Overcast,120,2014-03-23 08:15:00
2:35 AM,28.9,22.6,77,30.31,10.0,SE,5.8,-,N/A,,Overcast,130,2014-03-23 08:35:00
2:55 AM,28.8,22.6,78,30.31,10.0,SE,5.8,-,N/A,,Overcast,130,2014-03-23 08:55:00
3:15 AM,28.4,22.5,78,30.30,10.0,SE,4.6,-,N/A,,Overcast,130,2014-03-23 09:15:00
3:35 AM,28.6,22.1,77,30.30,10.0,ESE,3.5,-,N/A,,Overcast,120,2014-03-23 09:35:00
3:55 AM,28.0,22.1,78,30.30,10.0,Calm,Calm,-,N/A,,Overcast,0,2014-03-23 09:55:00
4:15 AM,27.3,21.9,80,30.29,10.0,Calm,Calm,-,N/A,,Overcast,0,2014-03-23 10:15:00
4:35 AM,26.6,20.7,78,30.29,10.0,Calm,Calm,-,N/A,,Mostly Cloudy,0,2014-03-23 10:35:00
4:55 AM,22.5,18.0,83,30.29,10.0,West,5.8,-,N/A,,Scattered Clouds,260,2014-03-23 10:55:00
5:15 AM,22.8,17.1,79,30.30,10.0,West,5.8,-,N/A,,Mostly Cloudy,280,2014-03-23 11:15:00
5:35 AM,22.1,16.2,78,30.30,10.0,WSW,6.9,-,N/A,,Scattered Clouds,240,2014-03-23 11:35:00
5:55 AM,22.6,15.8,75,30.30,10.0,NW,6.9,-,N/A,,Clear,310,2014-03-23 11:55:00
6:15 AM,23.7,14.4,67,30.30,10.0,NW,9.2,-,N/A,,Clear,320,2014-03-23 12:15:00
6:35 AM,23.0,14.9,71,30.30,10.0,WNW,6.9,-,N/A,,Clear,290,2014-03-23 12:35:00
6:55 AM,22.8,13.1,66,30.30,10.0,NW,9.2,-,N/A,,Clear,310,2014-03-23 12:55:00
7:15 AM,21.9,12.6,67,30.31,10.0,WNW,10.4,-,N/A,,Clear,300,2014-03-23 13:15:00
7:35 AM,21.2,11.3,66,30.31,10.0,NW,8.1,-,N/A,,Clear,310,2014-03-23 13:35:00
7:55 AM,22.1,10.8,62,30.31,10.0,NW,8.1,-,N/A,,Clear,310,2014-03-23 13:55:00
8:15 AM,23.2,11.3,60,30.31,10.0,NNW,8.1,-,N/A,,Clear,330,2014-03-23 14:15:00
8:35 AM,24.6,12.6,60,30.31,10.0,WNW,4.6,-,N/A,,Clear,300,2014-03-23 14:35:00
8:55 AM,26.2,11.7,54,30.30,10.0,NNW,10.4,-,N/A,,Clear,330,2014-03-23 14:55:00
9:15 AM,28.2,12.2,51,30.30,10.0,North,9.2,-,N/A,,Clear,350,2014-03-23 15:15:00
9:35 AM,30.7,14.5,51,30.29,10.0,North,10.4,-,N/A,,Clear,350,2014-03-23 15:35:00
9:55 AM,32.9,15.8,49,30.29,10.0,North,6.9,-,N/A,,Clear,360,2014-03-23 15:55:00
10:15 AM,35.4,15.1,43,30.27,10.0,North,5.8,-,N/A,,Clear,350,2014-03-23 16:15:00
10:35 AM,38.1,15.3,39,30.26,10.0,NNE,4.6,-,N/A,,Clear,20,2014-03-23 16:35:00
10:55 AM,44.8,8.2,23,30.25,10.0,SSW,18.4,24.2,N/A,,Clear,200,2014-03-23 16:55:00
11:15 AM,45.9,7.9,21,30.25,10.0,SW,19.6,25.3,N/A,,Clear,230,2014-03-23 17:15:00
11:35 AM,47.5,3.0,16,30.25,10.0,WSW,17.3,29.9,N/A,,Clear,240,2014-03-23 17:35:00
11:55 AM,48.0,3.2,16,30.24,10.0,WSW,18.4,29.9,N/A,,Clear,240,2014-03-23 17:55:00
12:15 PM,48.4,1.9,15,30.24,10.0,WSW,24.2,33.4,N/A,,Clear,240,2014-03-23 18:15:00
12:35 PM,50.0,1.0,13,30.23,10.0,WSW,18.4,29.9,N/A,,Clear,240,2014-03-23 18:35:00
12:55 PM,50.0,-2.4,11,30.22,10.0,WSW,20.7,29.9,N/A,,Clear,240,2014-03-23 18:55:00
1:15 PM,50.7,-5.8,10,30.22,10.0,WSW,20.7,28.8,N/A,,Clear,240,2014-03-23 19:15:00
1:35 PM,51.3,-6.3,9,30.21,10.0,SW,15.0,26.5,N/A,,Clear,230,2014-03-23 19:35:00
1:55 PM,51.4,-8.9,8,30.20,10.0,SW,18.4,28.8,N/A,,Clear,230,2014-03-23 19:55:00
2:15 PM,51.3,-7.8,9,30.19,10.0,WSW,17.3,27.6,N/A,,Clear,240,2014-03-23 20:15:00
2:35 PM,51.8,-8.3,8,30.19,10.0,WSW,18.4,31.1,N/A,,Clear,250,2014-03-23 20:35:00
2:55 PM,50.7,-8.9,8,30.17,10.0,West,21.9,28.8,N/A,,Clear,260,2014-03-23 20:55:00
3:15 PM,50.0,-0.4,13,30.16,10.0,West,29.9,39.1,N/A,,Clear,270,2014-03-23 21:15:00
3:35 PM,50.2,2.1,14,30.15,10.0,West,24.2,36.8,N/A,,Clear,260,2014-03-23 21:35:00
3:55 PM,50.0,0.9,13,30.15,10.0,West,23.0,38.0,N/A,,Clear,270,2014-03-23 21:55:00
4:15 PM,50.5,4.5,15,30.14,10.0,West,21.9,34.5,N/A,,Clear,260,2014-03-23 22:15:00
4:35 PM,50.0,3.7,15,30.14,10.0,West,26.5,41.4,N/A,,Clear,260,2014-03-23 22:35:00
4:55 PM,50.0,2.3,14,30.14,10.0,West,20.7,33.4,N/A,,Clear,270,2014-03-23 22:55:00
5:15 PM,50.4,3.0,14,30.14,10.0,WSW,20.7,29.9,N/A,,Clear,250,2014-03-23 23:15:00
5:35 PM,49.5,3.0,15,30.14,10.0,West,23.0,36.8,N/A,,Clear,280,2014-03-23 23:35:00
5:55 PM,49.6,5.0,16,30.14,10.0,West,25.3,34.5,N/A,,Clear,260,2014-03-23 23:55:00
6:15 PM,48.9,6.6,18,30.14,10.0,West,13.8,26.5,N/A,,Clear,270,2014-03-24 00:15:00
6:35 PM,47.7,7.2,19,30.14,10.0,West,11.5,20.7,N/A,,Clear,280,2014-03-24 00:35:00
6:55 PM,46.2,7.3,20,30.14,10.0,West,3.5,-,N/A,,Clear,260,2014-03-24 00:55:00
7:15 PM,45.1,7.3,21,30.14,10.0,Calm,Calm,-,N/A,,Clear,0,2014-03-24 01:15:00
7:35 PM,42.4,7.5,24,30.14,10.0,Calm,Calm,-,N/A,,Clear,0,2014-03-24 01:35:00
7:55 PM,45.3,6.8,21,30.14,10.0,WNW,11.5,17.3,N/A,,Clear,300,2014-03-24 01:55:00
8:15 PM,43.7,7.0,22,30.15,10.0,Calm,Calm,-,N/A,,Clear,0,2014-03-24 02:15:00
8:35 PM,43.5,7.5,23,30.15,10.0,NNE,3.5,-,N/A,,Clear,30,2014-03-24 02:35:00
8:55 PM,41.7,7.3,24,30.16,10.0,Calm,Calm,-,N/A,,Clear,0,2014-03-24 02:55:00
9:15 PM,41.9,7.5,24,30.17,10.0,Calm,Calm,-,N/A,,Clear,0,2014-03-24 03:15:00
9:35 PM,42.6,7.3,23,30.17,10.0,Calm,Calm,-,N/A,,Clear,0,2014-03-24 03:35:00
9:55 PM,41.7,7.0,24,30.17,10.0,SE,3.5,-,N/A,,Clear,130,2014-03-24 03:55:00
10:15 PM,40.5,6.8,25,30.19,10.0,Calm,Calm,-,N/A,,Clear,0,2014-03-24 04:15:00
10:35 PM,42.6,0.7,17,30.19,10.0,WSW,9.2,-,N/A,,Clear,250,2014-03-24 04:35:00
10:55 PM,41.0,0.3,18,30.19,10.0,West,10.4,-,N/A,,Clear,270,2014-03-24 04:55:00
11:15 PM,42.1,-2.6,15,30.19,10.0,West,13.8,23.0,N/A,,Clear,260,2014-03-24 05:15:00
11:35 PM,41.2,-2.2,16,30.19,10.0,West,11.5,16.1,N/A,,Clear,270,2014-03-24 05:35:00
11:55 PM,41.2,-3.3,15,30.19,10.0,West,11.5,20.7,N/A,,Clear,280,2014-03-24 05:55:00